sat.trackr.live / text

‹ back to catalog

STARLINK-35077

NORAD 65529 · 2025-200K

PAYLOAD ACTIVE UNKNOWN

§ Identity

Operator
Country
US
Launch date
2025-09-06
Launch site
AFWTR
Launch vehicle
Mass (kg)
RCS (m²)

Purposes: comms

External: N2YO · Heavens-Above · Gunter

§ Orbital elements

Epoch: 2026-05-25T03:33:39.982752Z

Period
95.64 min
Inclination
97.4498°
Eccentricity
0.0001841
Mean motion
15.05647856 rev/d
Perigee alt
548.2 km
Apogee alt
550.8 km
Semi-major
6,927.7 km
B*
2.2814e-4
RAAN
214.7644°
Arg perigee
142.6325°
Mean anomaly
217.5030°
Rev number
4,063

§ Raw data

STARLINK-350771 65529U 25200K   26145.14837943  .00003234  00000+0  22814-3 0  99942 65529  97.4498 214.7644 0001841 142.6325 217.5030 15.05647856 40633

JSON: /api/v1/satellites/65529 · /tle

For live sub-satellite position, see the globe view (requires WebGL).

§ Visibility from observer

Set your observer location to see the next 7 days of passes ≥ 10°. The values pass through the URL so the page stays shareable.

No JS? Fill the form by hand. The geolocation button needs JavaScript.